Location: Middlebury
(44.0153°N, 73.1678°W)
Time: 15:54:13
(UTC-04:00)

UWE-3 - Pass Details

Date: 23 June 2024
Orbit: 566 x 652 km, 97.8° (Epoch: 21 July)

Event Time Altitude Azimuth Distance (km) Brightness Sun altitude
Rises 03:55:53 0° 6° (N) 2,881 ? -10.9°
Reaches altitude 10° 03:58:09 10° 0° (N) 1,957 ? -10.6°
Maximum altitude 04:02:11 44° 289° (WNW) 820 ? -10.1°
Enters shadow 04:05:36 13° 219° (SW) 1,704 ? -9.7°
